Location: Newark
(59.8814°N, 10.8258°E)
Time: 08:38:02
(UTC+00:00)

ISS - Visible Passes

Search period start: 22 January 2020 00:00
Search period end: 01 February 2020 00:00
Orbit: 415 x 421 km, 51.6° (Epoch: 22 January)

Date Brightness Start Highest point End Pass type
(mag) Time Alt. Az. Time Alt. Az. Time Alt. Az.
25 Jan -1.3 18:15:21 10° SSW 18:16:26 15° S 18:16:26 15° S visible
26 Jan -1.6 17:27:50 10° SSW 17:29:49 15° SSE 17:30:25 14° SSE visible
26 Jan -0.6 19:03:13 10° SW 19:03:21 11° SW 19:03:21 11° SW visible
27 Jan -1.3 16:40:34 10° S 16:42:02 12° SSE 16:43:30 10° SE visible
27 Jan -1.6 18:15:25 10° SW 18:17:17 19° SSW 18:17:17 19° SSW visible
28 Jan -1.7 17:27:39 10° SW 17:30:06 19° S 17:31:13 16° SE visible
28 Jan -0.7 19:03:39 10° WSW 19:04:09 12° SW 19:04:09 12° SW visible
29 Jan -1.5 16:39:58 10° SSW 16:42:15 17° SSE 16:44:30 10° ESE visible
29 Jan -1.7 18:15:42 10° SW 18:18:04 20° S 18:18:04 20° S visible
30 Jan -1.7 17:27:48 10° SW 17:30:22 20° S 17:31:59 15° SE visible
30 Jan -0.8 19:04:20 10° WSW 19:04:55 12° SW 19:04:55 12° SW visible
31 Jan -1.6 16:39:57 10° SW 16:42:29 20° S 16:45:02 10° SE visible
31 Jan -1.5 18:16:11 10° WSW 18:18:30 17° SSW 18:18:51 17° S visible
